Location: Stull Observatory
(42.2506°N, 77.7903°W)
Time: 16:16:54
(UTC-04:00)

Daily predictions for brighter satellites

Satellite Brightness Start Highest point End
(mag) Time Altitude Azimuth Time Altitude Azimuth Time Altitude Azimuth
Envisat 3.3 21:18:02 10° SSE 21:22:58 54° ENE 21:27:56 10° N
PSLV R/B 4.4 21:22:50 10° SE 21:25:29 27° ENE 21:28:08 10° NNE
Cosmos 304 Rocket 4.3 21:21:51 10° N 21:26:29 44° ENE 21:31:04 10° SE
ERS-1 Rocket 3.1 21:21:58 10° SSE 21:26:59 83° WSW 21:32:04 10° NNW
Cosmos 1437 3.9 21:26:32 10° SSE 21:29:21 26° E 21:32:10 10° NE
Cosmos 1908 3.4 21:26:32 10° N 21:30:22 57° E 21:34:13 10° SSE
H-2A R/B 2.2 21:29:43 10° SSE 21:34:15 87° E 21:38:48 10° NNW
Cosmos 1328 Rocket 4.2 21:31:43 10° NNW 21:36:07 59° W 21:40:27 10° S
Cosmos 1777 Rocket 4.1 21:34:38 10° SSW 21:39:55 88° WNW 21:45:12 10° NNE
DELTA 2 R/B (1) 3.8 21:36:02 10° W 21:41:27 55° SSW 21:46:52 10° ESE
NOSS 3-1 (C) 4.0 21:37:09 10° S 21:42:15 32° ESE 21:47:48 10° NE
Cosmos 1674 2.7 21:39:32 10° S 21:43:20 72° E 21:47:12 10° NNE
ATLAS CENTAUR R/B 3.9 21:42:54 10° WNW 21:45:31 15° WSW 21:48:01 10° SW
Cosmos 2227 Rocket 4.1 21:46:32 10° E 21:47:07 10° E 21:47:41 10° E
Cosmos 1939 Rocket 3.3 21:47:48 10° S 21:51:42 60° W 21:55:34 10° NNW
Cosmos 1833 4.3 21:47:48 10° SSW 21:53:32 89° NW 21:59:14 10° NNE
Cosmos 1300 3.7 21:50:44 10° NNE 21:54:12 32° ENE 21:56:54 15° SE
Cosmos 405 3.2 21:52:12 10° NNW 21:55:50 74° W 21:59:25 10° S
Cosmos 2333 Rocket 3.9 21:52:04 10° N 21:56:23 21° NE 22:00:42 10° E
CZ-2C R/B 2.6 21:56:24 10° WSW 21:56:41 10° W 21:56:58 10° W
Cosmos 1437 Rocket 3.7 21:57:00 10° NNW 22:00:38 44° W 22:04:18 10° SSW
H-2A R/B 3.5 21:58:30 12° ESE 22:02:26 26° ENE 22:06:49 10° N
Terra 3.5 22:00:09 11° ESE 22:03:22 20° ENE 22:06:49 10° NNE
YAOGAN 6 2.7 22:00:51 14° SSE 22:03:49 61° ENE 22:07:24 10° N
COSMOS 2428 3.0 22:03:00 10° NNW 22:08:37 59° ENE 22:13:00 17° SE
Cosmos 1680 Rocket 3.6 22:04:25 10° NNW 22:09:41 78° WSW 22:14:22 13° SSE
CZ-4 SHROUD 3.7 22:08:08 12° S 22:10:56 57° W 22:14:02 10° NNW
CZ-4B R/B 3.6 22:06:52 10° NNE 22:12:07 63° ESE 22:17:15 10° S
Delta 2 Rocket 3.9 22:10:56 10° SW 22:13:56 26° S 22:15:00 22° SE
Cosmos 2297 Rocket 4.0 22:13:15 12° ESE 22:14:13 12° E 22:16:28 10° ENE
SPOT 1/Viking Rocket 3.6 22:10:08 15° SSE 22:14:26 72° ENE 22:19:35 10° N
Cosmos 1455 4.3 22:14:36 10° NE 22:16:44 14° ENE 22:18:08 12° E
MetOp-A 4.3 22:12:54 11° S 22:18:03 75° WSW 22:23:26 10° NNW
Cosmos 2219 Rocket 3.0 22:15:47 10° N 22:20:59 38° ENE 22:24:46 17° ESE
CZ-4 R/B 4.0 22:16:29 10° NNE 22:21:20 54° E 22:25:20 14° S
Cosmos 2242 Rocket 4.2 22:17:22 10° N 22:21:38 41° ENE 22:24:09 21° SE
ARGOS 3.2 22:18:17 17° SSE 22:22:30 71° ENE 22:27:53 10° N
Cosmos 1898 Rocket 3.7 22:19:08 12° S 22:23:43 48° ESE 22:28:44 10° NNE
FALCON 9 R/B 4.4 21:53:34 10° WSW 22:25:56 61° S 22:33:41 10° ESE
Cosmos 1328 4.3 22:22:49 10° SSW 22:26:42 58° W 22:30:38 10° N
Cosmos 2150 Rocket 4.2 22:22:48 10° S 22:28:03 55° ESE 22:33:24 10° NNE
CZ-4C R/B 3.6 22:26:40 25° SE 22:28:13 41° ENE 22:31:31 10° N
Cosmos 2237 4.2 22:24:30 10° NNW 22:30:17 89° SW 22:34:15 21° SSE
Cosmos 2151 4.1 22:28:52 10° SSW 22:32:52 43° WNW 22:36:54 10° N
USA 245 2.5 22:32:07 30° S 22:33:08 59° WSW 22:35:28 10° NNW
DELTA 2 DEB (DPAF) 4.4 22:31:49 24° SE 22:34:24 58° ENE 22:38:50 10° N
CARTOSAT-1 4.3 22:34:08 23° SE 22:36:14 39° ENE 22:40:16 10° N
SL-08 RB Rocket 3.6 22:34:43 23° SSE 22:37:30 83° ENE 22:42:01 10° N
Sich 1 3.0 22:34:25 18° S 22:37:37 75° E 22:42:01 10° NNE
Cosmos 1633 Rocket 3.0 22:36:53 20° S 22:39:53 74° E 22:44:16 10° NNE
Cosmos 1726 2.1 22:37:21 10° N 22:41:08 86° W 22:43:05 27° S
Cosmos 2219 3.6 22:37:20 10° SSW 22:43:03 68° WNW 22:48:49 10° NNE
Tiangong 1 1.7 22:40:19 10° SW 22:42:38 35° S 22:42:38 35° S
DELTA 2 R/B(2) 4.2 22:42:07 10° WSW 22:43:34 40° SSW 22:43:34 40° SSW
Lacrosse 4 Rocket 3.9 22:42:57 10° NNE 22:45:13 14° NE 22:47:28 10° ENE
NOSS 3-1 (A) 3.3 22:39:33 10° SSW 22:45:22 71° ESE 22:51:51 10° NE
SPOT 5 4.5 22:44:29 10° SSW 22:48:22 28° W 22:52:28 10° NW
Cosmos 2333 4.2 22:43:48 10° NNW 22:49:33 85° WSW 22:52:56 26° SSE
Cosmos 1271 Rocket 2.6 22:46:20 10° N 22:50:10 75° E 22:51:39 36° SSE
Cosmos 2237 Rocket 2.9 22:45:37 10° NNW 22:51:04 44° ENE 22:54:11 23° ESE
SL-14 R/B 3.6 22:48:33 17° SSW 22:51:27 65° W 22:55:27 10° N
Cosmos 1703 3.2 22:50:01 33° SSE 22:51:38 67° E 22:55:31 10° NNE
Cosmos 2058 4.1 22:49:28 10° SSW 22:53:21 41° WNW 22:57:16 10° N
Cosmos 2082 4.2 22:52:45 27° SSE 22:55:10 40° ESE 23:00:29 10° NE
USA 32 4.0 22:53:15 10° N 22:58:33 87° W 23:01:35 26° S
Iridium 2 3.6 23:01:04 38° S 23:02:29 84° E 23:06:20 10° N
COSMOS 2455 4.1 22:57:12 10° NNW 23:02:32 31° NE 23:06:26 16° ESE
Cosmos 2360 Rocket 3.9 22:58:29 10° NW 23:02:59 25° WSW 23:07:20 10° SSW
Meteor 2-10 4.2 22:59:53 10° N 23:05:37 88° E 23:08:40 29° S
ATLAS 2AS CENTAUR R/B 3.3 23:03:26 23° S 23:07:53 46° ESE 23:15:24 10° NE
Meteor 1-4 Rocket 3.0 23:04:51 10° NNW 23:08:33 56° W 23:09:49 35° SSW
ERBS 4.2 23:12:03 20° ENE 23:12:03 20° ENE 23:13:22 10° ENE
MINOTAUR R/B 4.4 23:10:26 10° NNW 23:13:33 80° WSW 23:13:39 78° SSW
Nadezhda 1 Rocket 3.9 23:08:11 10° N 23:14:18 85° E 23:17:27 31° S
Cosmos 1933 4.4 23:16:34 10° NNE 23:20:13 31° ENE 23:20:45 30° E
Cosmos 1626 2.0 23:20:38 59° SSE 23:21:14 78° E 23:25:00 10° N
IGS 5A 3.5 23:21:56 44° S 23:23:09 73° WSW 23:27:20 10° NNW
Cosmos 1937 Rocket 3.7 23:20:01 16° SSW 23:24:09 68° WNW 23:29:22 10° NNE
Cosmos 220 Rocket 4.3 23:22:01 23° SW 23:24:39 65° WNW 23:29:04 10° NNE
COS B Rocket 4.5 23:22:29 10° NNE 23:25:49 28° E 23:25:49 28° E
ATLAS 3B R/B 3.3 23:19:08 10° NNW 23:25:58 48° NE 23:30:02 23° ESE
Cosmos 1745 Rocket 4.2 23:22:21 20° SSW 23:26:46 69° W 23:32:57 10° N
Cosmos 292 Rocket 4.4 23:25:14 10° NNW 23:29:47 46° WSW 23:31:27 32° SSW
Cosmos 2227 Rocket 2.1 23:27:03 28° SSW 23:30:10 81° ESE 23:35:52 10° NNE
Cosmos 1470 Rocket 3.8 23:28:45 33° SSW 23:30:32 63° W 23:34:50 10° N
Okean 1-7 4.4 23:27:57 10° NNE 23:31:31 25° ENE 23:32:05 24° E
Cosmos 1933 Rocket 3.9 23:29:58 33° SSW 23:31:51 64° W 23:36:18 10° N
NOSS 3-1 (C) 4.4 23:27:06 10° WSW 23:32:49 47° NW 23:39:12 10° NNE
Cosmos 1703 Rocket 4.1 23:30:10 10° N 23:34:20 43° ENE 23:35:00 40° ESE
Cosmos 1709 Rocket 4.0 23:32:45 37° SSE 23:35:07 63° E 23:41:09 10° NNE
Cosmos 990 Rocket 4.1 23:33:45 26° SSW 23:36:40 74° WNW 23:41:50 10° NNE
Cosmos 2221 Rocket 4.1 23:35:03 10° N 23:39:28 48° ENE 23:40:13 43° ESE
Terra 2.5 23:39:02 32° SSW 23:40:45 46° W 23:45:21 10° NNW
Spot 4 4.1 23:39:31 39° SSW 23:41:07 60° W 23:45:55 10° NNW
Cosmos 2333 Rocket 2.3 23:35:28 10° NNW 23:41:12 68° WSW 23:43:13 40° S
H-2A R/B 2.9 23:39:08 28° SSW 23:41:33 45° W 23:46:45 10° NNW
Cosmos 1346 4.2 23:42:11 38° W 23:42:16 39° WNW 23:45:09 10° N
SL-16 R/B 2.7 23:38:12 10° NNW 23:43:46 52° ENE 23:45:52 34° ESE
Cosmos 1269 Rocket 4.2 23:41:16 10° NNW 23:46:34 65° ENE 23:48:05 45° SE
NOSS 0 Rocket 4.3 23:41:01 10° NW 23:47:00 54° WSW 23:49:18 35° SSW
GEOS 3 Rocket 4.5 23:46:31 25° E 23:49:09 43° NE 23:54:03 10° NNW
Cosmos 1455 3.1 23:49:07 10° NNW 23:52:39 37° W 23:53:10 35° WSW
